Location: Baia Mare
(47.6567°N, 23.5850°E)
Time: 22:37:17
(UTC+02:00)

ISS - Pass Details

Date: 07 February 2018
Orbit: 402 x 407 km, 51.6° (Epoch: 24 February)

Event Time Altitude Azimuth Distance (km) Brightness Sun altitude
Rises 19:04:37 0° 293° (WNW) 2,321 1.1 -15.3°
Reaches altitude 10° 19:06:43 10° 296° (WNW) 1,460 -0.1 -15.6°
Maximum altitude 19:09:58 68° 19° (NNE) 437 -3.9 -16.2°
Enters shadow 19:10:49 45° 86° (E) 565 -3.6 -16.3°
